Weather in Khurmuli

Russia / Khabarovsk Krai     51°00′27″N   136°53′38″E
temp.,
°C
wind,
m/s
gust,
m/s
humid.,
%
clouds,
%
prec.,
mm/h
press.,
hPa
HPBL,
m
22 january, fri
fri2201:00−21ssw1196100 0.0 101920
04:00−22sw1189100 0.0 101920
07:00−25s119772 0.0 102020
10:00−24sse249680 0.0 1021165
13:00−20s358889 0.0 1021414
16:00−21sse488993 0.0 1020428
19:00−25sse369794 0.0 1022152
22:00−26s239884 0.0 102358
23 january, sat
sat2301:00−27sse229817 0.0 102423
04:00−28sse129940 0.0 102524
07:00−29sse229970 0.0 102623
10:00−27sse289766 0.0 1026262
13:00−22sse378769 0.0 1025373
16:00−20sse498750 0.0 1025447
19:00−21sse4108895 0.0 1026383
22:00−20sse4108889 0.0 1026407
24 january, sun
sun2401:00−19sse4990100 0.0 1024409
04:00−20sse3892100 0.0 1024339
07:00−22se129688 0.0 102420
10:00−21ssw119555 0.0 102658
13:00−16ssw128076 0.0 1026388
16:00−15s248486 0.0 1026450
19:00−19se229495 0.0 102935
22:00−22se119882 0.0 103020
25 january, mon
mon2501:00−23nnw1110076 0.0 103120
04:00−24nw129988 0.1 103320
07:00−26nnw1299100 0.0 103419
10:00−25n1296100 0.1 103593
13:00−21n2384100 0.0 1035357
16:00−20n128699 0.0 1034314
19:00−24nnw129486 0.0 103520
22:00−24nnw129593 0.0 103521
26 january, tue
tue2601:00−25nnw1296100 0.0 103328
04:00−24nnw2495100 0.0 1030171
07:00−23nnw2591100 0.0 1027300
10:00−22nnw2596100 0.2 1025346
13:00−20nnw3593100 0.6 1021426
16:00−19nnw3595100 1.2 1019466
19:00−20nw4897100 0.6 1019386
22:00−23nw4995100 0.8 1019383